Weather in Stanford

United States     37°25′32″N   122°10′02″W
В апреле 2022 года жителям России запретили посещать сайт meteo.paraplan.net по решению Генеральной прокуратуры. Аудитория сайта уменьшилась в 10 раз. Владельцы сайта не видят смысла в поддержке погодного сервера в таких условиях. Сайт будет закрыт в октябре.
temp.,
°C
wind,
m/s
gust,
m/s
humid.,
%
clouds,
%
prec.,
mm/h
press.,
hPa
HPBL,
m
4 october, tue
tue423:00+14wsw129012 0.0 101771
02:00+13wsw12919 0.0 101770
05:00+13wsw229212 0.0 101673
08:00+13sw1290100 0.0 1017101
11:00+20nw21609 0.0 1017289
14:00+23nw335218 0.0 1015430
17:00+22wnw34544 0.0 1014271
20:00+15wsw32853 0.0 101654
5 october, wed
wed523:00+14sw22882 0.0 101666
02:00+14ssw229012 0.0 101560
05:00+14sw22893 0.0 101548
08:00+15ssw11810 0.0 101639
11:00+22n21520 0.0 1016284
14:00+23nnw32480 0.0 1014461
17:00+23wnw33500 0.0 1014212
20:00+16wsw22816 0.0 101534
6 october, thu
thu623:00+16ssw11755 0.0 101520
02:00+16wsw227658 0.0 101519
05:00+15wsw1176100 0.0 101514
08:00+16wsw017592 0.0 101617
11:00+23n114934 0.0 1017263
14:00+24nw33465 0.0 1016484
17:00+23wnw335120 0.0 1015193
20:00+17w22785 0.0 101633
7 october, fri
fri723:00+16wsw22765 0.0 101722
02:00+16wsw11753 0.0 101716
05:00+16w11742 0.0 101713
08:00+17nne01700 0.0 101813
11:00+22n11470 0.0 1017230
14:00+25nw32400 0.0 1015477
17:00+26wnw34400 0.0 1014206
20:00+19w22600 0.0 101522
8 october, sat
sat823:00+19sw11550 0.0 101514
02:00+18sw11560 0.0 101511
05:00+17nw01580 0.0 101511
08:00+18se11570 0.0 101511
11:00+24nnw21390 0.0 1015264
14:00+27nw33350 0.0 1014521
17:00+25wnw33360 0.0 1013204
20:00+17wsw22650 0.0 101428